www.pogodaiklimat.ru

ПОГОДА в Kozhikode

  • Прогноз погоды в Kozhikode
  • Монитор погоды в Kozhikode
  • Климат города

АРХИВ ПОГОДЫ в Kozhikode

Время (UTC), дата Ветер
(напр.,м/с)
 
Видим.   Явления Облачность Т
(С)
Тd
(С)
f
(%)
Тe
(С)
Тes
(С)
Комфортность P
(гПа)
Po
(гПа)
Тmin
(С)
Tmax
(С)
R
(мм)
S
(см)
12 15.01 З 1 10 км 1/0
[Ci fib]
+30.8 +23.3 64 +41 +42 опасность
перегрева
1010.4 1010.0 +35.8
15 15.01 С 1 4000 м ясно +27.8 +23.1 76 +37 +37 очень
душно
1013.2 1013.0
18 15.01 штиль 0 4000 м ясно +26.0 +22.4 81 +34 +34 очень
душно
1013.1 1013.0
21 15.01 штиль 0 4000 м 1/0
[Ci fib]
+25.0 +22.0 83 +32 +32 очень
душно
1012.6 1013.0
00 16.01 штиль 0 4000 м ясно +24.0 +21.9 88 +31 +31 очень
душно
1013.2 1013.0
03 16.01 штиль 0 10 км ясно +25.2 +20.3 74 +31 +36 очень
душно
1015.3 1015.0 +23.1 +35.8
06 16.01 З 2 10 км ясно +32.6 +22.1 54 +41 +58 опасность
перегрева
1015.0 1015.0
09 16.01 З 2 10 км ясно +34.4 +23.5 53 +45 +58 опасность
перегрева
1011.6 1012.0
12 16.01 З 2 10 км ясно +31.2 +23.7 64 +42 +43 опасность
перегрева
1010.5 1011.0 +35.0
15 16.01 С 1 4000 м ясно +28.0 +23.7 77 +38 +38 очень
душно
1012.5 1013.0
18 16.01 штиль 0 4000 м ясно +26.2 +23.0 83 +35 +35 очень
душно
1012.8 1013.0
21 16.01 штиль 0 4000 м ясно +24.6 +22.2 87 +32 +32 очень
душно
1011.3 1011.0
00 17.01 В 2 4000 м ясно +24.4 +21.4 83 +31 +31 очень
душно
1012.4 1012.0
03 17.01 ЮВ 1 10 км ясно +24.4 +19.8 76 +30 +34 очень
душно
1014.7 1015.0 +23.1 +35.0
06 17.01 З 1 10 км ясно +32.0 +21.3 53 +40 +57 опасность
солнечного
удара
1014.4 1014.0
09 17.01 З 1 10 км ясно +34.6 +23.1 51 +45 +58 опасность
перегрева
1010.9 1011.0
12 17.01 З 1 10 км 5/0
[]
+29.4 +23.3 70 +40 +40 очень
душно
1010.6 1011.0 +35.2
15 17.01 штиль 0 4000 м ясно +28.0 +23.7 77 +38 +38 очень
душно
1010.5 1011.0
18 17.01 штиль 0 4000 м ясно +26.2 +23.0 83 +35 +35 очень
душно
1012.6 1013.0
21 17.01 штиль 0 4000 м ясно +24.6 +22.2 87 +32 +32 очень
душно
1011.6 1012.0
00 18.01 штиль 0 4000 м 3/0
[Ci sp]
+24.4 +21.4 83 +31 +31 очень
душно
1012.6 1013.0
03 18.01 штиль 0 10 км ясно +24.6 +18.4 68 +29 +34 душно 1014.9 1015.0 +23.0 +35.2
06 18.01 штиль 0 10 км ясно +32.0 +20.3 50 +39 +59 опасность
солнечного
удара
1014.2 1014.0
09 18.01 З 1 10 км ясно +34.6 +23.1 51 +45 +58 опасность
перегрева
1011.0 1011.0
12 18.01 штиль 0 10 км ясно +29.4 +23.3 70 +40 +41 очень
душно
1010.8 1011.0 +35.2
15 18.01 штиль 0 4000 м ясно +27.6 +20.6 66 +34 +34 очень
душно
1012.8 1013.0
18 18.01 штиль 0 4000 м ясно +26.2 +23.0 83 +35 +35 очень
душно
1012.6 1013.0
21 18.01 штиль 0 4000 м ясно +24.6 +23.2 92 +33 +33 очень
душно
1014.6 1015.0
00 19.01 штиль 0 4000 м ясно +24.4 +21.4 83 +31 +31 очень
душно
1013.0 1013.0
03 19.01 штиль 0 10 км ясно +24.6 +18.4 68 +29 +34 душно 1015.1 1015.0 +23.0 +35.2
06 19.01 штиль 0 10 км ясно +31.0 +20.5 54 +38 +59 опасность
солнечного
удара
1014.7 1015.0
09 19.01 З 2 10 км ясно +34.0 +20.3 45 +41 +53 опасность
перегрева
1011.3 1011.0
12 19.01 З 1 10 км ясно +31.2 +20.4 53 +38 +39 очень
душно
1010.8 1011.0 +35.2
15 19.01 штиль 0 4000 м ясно +26.8 +19.4 64 +32 +32 очень
душно
1013.3 1013.0
18 19.01 штиль 0 4000 м ясно +25.2 +19.0 69 +30 +30 душно 1013.8 1014.0
21 19.01 В 2 4000 м ясно +23.8 +19.1 75 +29 +29 душно 1012.9 1013.0
00 20.01 штиль 0 4000 м ясно +22.4 +18.9 81 +28 +28 душно 1013.1 1013.0
03 20.01 В 1 10 км ясно +25.0 +17.7 64 +29 +33 душно 1014.9 1015.0 +21.7 +35.2
06 20.01 З 1 10 км 1/0
[Ci fib]
+32.6 +19.2 45 +38 +55 опасность
солнечного
удара
1014.3 1014.0
09 20.01 З 2 10 км ясно +34.4 +22.5 50 +44 +55 опасность
перегрева
1010.7 1011.0
12 20.01 З 2 10 км ясно +30.2 +22.6 64 +40 +40 очень
душно
1010.3 1010.0 +35.2
15 20.01 С 1 4000 м ясно +27.8 +20.5 65 +35 +35 очень
душно
1012.1 1012.0
18 20.01 штиль 0 4000 м ясно +26.0 +20.8 73 +33 +33 очень
душно
1013.0 1013.0
21 20.01 штиль 0 4000 м 1/1 600 м
[Sc]
+25.0 +20.4 76 +31 +31 очень
душно
1011.6 1012.0
00 21.01 В 1 4000 м ясно +24.2 +20.8 81 +30 +30 очень
душно
1011.5 1012.0
03 21.01 штиль 0 10 км 3/0
[Ac trans]
+26.8 +20.7 69 +33 +37 очень
душно
1014.1 1014.0 +23.6 +35.2
06 21.01 ЮЗ 2 10 км ясно +31.8 +22.5 58 +41 +56 опасность
перегрева
1013.9 1014.0
09 21.01 З 2 10 км 4/3 600 м
[Sc diur, vesp Ac trans]
+35.2 +23.1 50 +46 +53 опасность
перегрева
1011.3 1011.0
12 21.01 З 1 10 км 8/4 600 м
[Cu Sc Ac trans]
+31.0 +24.7 69 +44 +44 опасность
перегрева
1011.0 1011.0 +36.1
15 21.01 З 1 4000 м 9/5 600 м
[Sc diur, vesp Ac trans Ci sp]
+29.6 +22.9 67 +39 +39 очень
душно
1013.8 1014.0
18 21.01 штиль 0 4000 м 8/4 600 м
[Sc diur, vesp Ac trans Ci sp]
+28.6 +22.3 69 +37 +37 очень
душно
1015.0 1015.0
21 21.01 штиль 0 4000 м 6/3 600 м
[Sc diur, vesp Ac trans Ci sp]
+26.0 +20.4 71 +32 +32 очень
душно
1013.6 1014.0
00 22.01 штиль 0 4000 м 6/3 600 м
[Sc diur, vesp Ac trans Ci sp]
+25.6 +20.6 74 +32 +32 очень
душно
1013.4 1013.0
03 22.01 штиль 0 10 км 9/3 600 м
[Sc diur, vesp Ac trans Ci sp]
+27.4 +22.4 74 +36 +38 очень
душно
1015.3 1015.0 +24.0 +36.1
06 22.01 З 2 10 км 5/3 600 м
[Sc diur, vesp Ac trans Ci fib]
+32.6 +23.7 60 +44 +54 опасность
перегрева
1015.7 1016.0
09 22.01 З 2 10 км 6/3 600 м
[Sc diur, vesp Ac trans Ci fib]
+35.6 +23.2 49 +46 +52 опасность
перегрева
1012.5 1013.0

 

Местоположение метеостанции Kozhikode (Kerala, Индия): широта 11.25 долгота 75.78 высота над уровнем моря 5 м.

В архиве по умолчанию представлена погода в Kozhikode за последнюю неделю. Архивные данные за месяц целиком и за предыдущие месяцы, начиная с января 2011 года, Вы можете получить, выбрав интересующий диапазон дат из раскрывающегося списка и нажав кнопку "Ввод!".

Внимание! Время в таблицах - всемирное. Для получения местного времени необходимо прибавить поправку, которая в Kozhikode равна 5.5 ч.

Ветер - указаны скорость ветра в м/с - средняя за 10 мин, порывы в срок и между сроками (в фигурных скобках) и направление, откуда дует ветер: С - северный, СВ - северо-восточный, В - восточный, ЮВ - юго-восточный, Ю - южный, ЮЗ - юго-западный, З - западный, СЗ - северо-западный.
Видимость - горизонтальная дальность видимости в метрах или километрах. При видимости от 1 до 10 км при отсутствии осадков обычно наблюдается дымка, при ухудшении видимости до 1 км и менее - туман. В сухую погоду видимость может ухудшаться дымом, пылью или мглою.
Явления - указаны атмосферные явления, наблюдавшиеся в срок или в последний час перед сроком; фигурными скобками обозначены явления, наблюдавшиеся между сроками (за 1-3 часа до срока); квадратными скобками обозначены град или гололедные отложения с указанием их диаметра в мм.
Облачность - указаны через наклонную черту общая и нижняя облачность в баллах и высота нижней границы облаков в метрах; квадратными скобками обозначены формы облаков: Ci - перистые, Cs - перисто-слоистые, Cc - перисто-кучевые, Ac - высококучевые, As - высокослоистые, Sc - слоисто-кучевые, Ns - слоисто-дождевые, Cu - кучевые, Cb - кучево-дождевые. Подробнее классификацию облаков см. в Атласе облаков (PDF).
T - Температура воздуха - температура, измеренная на высоте 2 м над землей.
Td - Температура точки росы - температура, при понижении до которой содержащийся в воздухе водяной пар достигнет насыщения.
f - Относительная влажность воздуха - влажноcть воздуха, измеренная на высоте 2 м над землей.
Te - Эффективная температура - температура, которую ощущает одетый по сезону человек в тени. Характеристика душности погоды. При расчете учитывается влияние влажности воздуха и скорости ветра на теплоощущения человека.
Tes - Эффективная температура на солнце - температура, которую ощущает человек, с поправкой на солнечный нагрев. Характеристика знойности погоды. Зависит от высоты солнца над горизонтом, облачности и скорости ветра. Ночью, в пасмурную погоду, а также при ветре 12 м/с и более поправка равна нулю.
P - Атмосферное давление - приведенное к уровню моря атмосферное давление.
Po - Атмосферное давление - измеренное на уровне метеостанции атмосферное давление.
Tmin - Минимальная температура - минимум температуры воздуха на высоте 2 м над землей.
Tmax - Максимальная температура - максимум температуры воздуха на высоте 2 м над землей.
R - Количество осадков - Количество выпавших осадков, мм. При наведении курсора мыши на число - период времени, за который выпало указанное количество осадков.
S - Снежный покров - Высота снежного покрова, см. При наведении курсора мыши на число - состояние снежного покрова и степень покрытия местности в баллах.